This demonstration page uses our WeatherBlox Daily Observations layout. Learn more.

Left ArrowRight Arrow

36.17497, -115.13722

Hourly Observations for October 10, 2019

Temp ( °F °C ) Dew Point ( °F °C ) Humidity (%) Winds ( mph kmh ) Pressure ( in mb ) Visibility ( mi km ) Precip ( " mm )
12:53 am 00:53 Clear 64 17.8 3 -16.1 9 9 NW 26 43 29.86 1011 10 16.0934 N/A
1:53 am 01:53 Clear 61 16.1 2 -16.7 9 9 NNW 28 44 29.92 1013 10 16.0934 N/A
2:53 am 02:53 Clear 59 15 2 -16.7 10 10 NW 25 41 29.95 1014 10 16.0934 N/A
3:53 am 03:53 Clear 57 13.9 2 -16.7 10 10 NNW 29 46 29.98 1015 10 16.0934 N/A
4:53 am 04:53 Clear 56 13.3 2 -16.7 11 11 N 22 35 30.05 1018 10 16.0934 N/A
5:53 am 05:53 Clear 54 12.2 2 -16.7 12 12 NNW 23 37 30.07 1018 10 16.0934 N/A
6:53 am 06:53 Sunny 53 11.7 1 -17.2 12 12 NNW 18 30 30.12 1020 10 16.0934 N/A
7:53 am 07:53 Sunny 53 11.7 2 -16.7 12 12 NNW 22 35 30.16 1021 10 16.0934 N/A
8:53 am 08:53 Sunny 54 12.2 3 -16.1 12 12 NNW 23 37 30.19 1023 10 16.0934 N/A
9:53 am 09:53 Sunny 57 13.9 3 -16.1 11 11 NNW 20 31 30.21 1023 10 16.0934 N/A
10:53 am 10:53 Sunny 59 15 3 -16.1 10 10 N 18 30 30.22 1023 10 16.0934 N/A
11:53 am 11:53 Sunny 61 16.1 2 -16.7 9 9 NNW 16 26 30.21 1023 10 16.0934 N/A
12:53 pm 12:53 Sunny 63 17.2 1 -17.2 8 8 NNW 15 24 30.19 1022 10 16.0934 N/A
1:53 pm 13:53 Sunny 63 17.2 1 -17.2 8 8 VRB 3 6 30.17 1022 10 16.0934 N/A
2:53 pm 14:53 Sunny 66 18.9 3 -16.1 8 8 NE 9 15 30.15 1021 10 16.0934 N/A
3:53 pm 15:53 Sunny 68 20 1 -17.2 7 7 NNE 7 11 30.14 1021 10 16.0934 N/A
4:53 pm 16:53 Sunny 67 19.4 3 -16.1 8 8 NE 18 30 30.13 1020 10 16.0934 N/A
5:01 pm 17:01 Sunny 67 19.4 3 -16.1 8 8 NE 14 22 30.04 1017 10 16.0934 N/A
5:53 pm 17:53 Sunny 65 18.3 4 -15.6 9 9 ENE 14 22 30.14 1021 10 16.0934 N/A
6:53 pm 18:53 Clear 64 17.8 6 -14.4 10 10 NE 14 22 30.16 1021 10 16.0934 N/A
7:53 pm 19:53 Clear 61 16.1 8 -13.3 12 12 ENE 21 33 30.18 1022 10 16.0934 N/A
8:53 pm 20:53 Clear 59 15 8 -13.3 13 13 ENE 12 19 30.22 1023 10 16.0934 N/A
9:53 pm 21:53 Clear 60 15.6 5 -15 11 11 NE 16 26 30.23 1024 10 16.0934 N/A
10:53 pm 22:53 Clear 59 15 5 -15 11 11 ENE 16 26 30.24 1024 10 16.0934 N/A
11:53 pm 23:53 Clear 58 14.4 5 -15 12 12 NE 13 20 30.24 1024 10 16.0934 N/A

Powered by AerisWeather